Richmond Municipal (RID)

 

Airport Diagram
No Airport Diagram Available
Current Weather/Forecast (VFR Conditions)
METAR KRID 190015Z AUTO 35004KT 10SM CLR 12/01 A2987 RMK AO2
TAF

Airport Information

All Charts
General
Chart Name View
TAKEOFF MINIMUMS
TAKEOFF MINIMUMS

Approaches
Chart Name Download
RNAV (GPS) RWY 06
RNAV (GPS) RWY 24
RNAV (GPS) RWY 33
RNAV (GPS) RWY 06
RNAV (GPS) RWY 24
RNAV (GPS) RWY 33


Airport Statistics
Departures Arrivals Local
All Collected Stats since June 2016: 11 17 0
2021 Stats: 2 2 0
April Stats: 0 0 0

Inbound Traffic (Arrivals) - 0

No inbound traffic.


Outbound Traffic (Departures) - 0

No outbound traffic.


Local Traffic (Pattern) - 0

No local traffic.